Flag for Germany Weather past 2 weeks in Augsburg, Bavaria, Germany

Now
26 °F

Clear.


Feels Like: 21 °F
Forecast: 27 / 32 °F
Wind: 3 mph from Southeast

Location: Augsburg

Current Time: Feb 1, 2015 at 6:56:50 AM

Latest Report: Feb 1, 2015 at 6:00 AM


Visibility: 5 mi

Pressure: 29.23 "Hg

Humidity: 94%

Dew point: 24 °F

Location of AugsburgLocation

Historic Weather in Augsburg — Graph

°F

Augsburg temperature yesterday

Maximum temperature yesterday: 36 °F (at 3:00 PM)
Minimum temperature yesterday: 27 °F (at 2:00 AM)
Average temperature yesterday: 32 °F

Past Weeks' High & Low Weather Summary

 TemperatureHumidityPressure
High37 °F (Jan 29, 1:00 PM)100% (Jan 17, 8:00 AM)30.44 "Hg (Jan 17, 8:00 AM)
Low26 °F (Feb 1, 6:00 AM)66% (Jan 31, 2:00 PM)28.82 "Hg (Jan 30, 2:00 AM)
Average32 °F90%29.88 "Hg
* Reported Jan 17 6:00 AM — Feb 1 6:00 AM, Augsburg, Weather by CustomWeather, © 2014

Note: Actual official high and low records may vary slightly from our data, if they occured in-between our weather recording intervals... More about our weather records

Advertising

Augsburg weather history for previous 24 hours

 ConditionsComfort  
Time TempWeatherWind HumidityBarometerVisibility
6:00 AM
Feb 1
26 °FClear.3 mph94%29.23 "Hg5 mi
5:00 AM28 °FClear.5 mph92%29.23 "Hg9 mi
3:00 AM30 °FOvercast.2 mph88%29.23 "Hg9 mi
2:00 AM31 °FOvercast.3 mph91%29.23 "Hg9 mi
1:00 AM29 °FPassing clouds.3 mph91%29.23 "Hg9 mi
12:00 AM33 °FOvercast.5 mph87%29.21 "Hg15 mi
11:00 PM
Jan 31
32 °FPassing clouds.6 mph84%29.21 "Hg16 mi
9:00 PM32 °FOvercast.2 mph82%29.21 "Hg12 mi
8:00 PM31 °FOvercast.2 mph82%29.18 "Hg12 mi
7:00 PM30 °FOvercast.1 mph90%29.18 "Hg18 mi
6:00 PM29 °FOvercast.2 mph88%29.18 "Hg22 mi
5:00 PM34 °FOvercast.1 mph73%29.12 "Hg22 mi
4:00 PM35 °FOvercast.3 mph68%29.12 "Hg28 mi
3:00 PM36 °FOvercast.5 mph66%29.12 "Hg22 mi
2:00 PM36 °FOvercast.6 mph66%29.12 "Hg22 mi
1:00 PM35 °FOvercast.6 mph71%29.12 "Hg8 mi
12:00 PM34 °FSunny.7 mph75%29.12 "Hg9 mi
11:00 AM33 °FScattered clouds.7 mph76%29.12 "Hg14 mi
9:00 AM28 °FOvercast.5 mph89%29.09 "Hg16 mi
8:00 AM31 °FOvercast.5 mph90%29.06 "Hg14 mi
7:00 AM29 °FOvercast.3 mph96%29.06 "Hg9 mi
6:00 AM31 °FSnow. Low clouds.3 mph97%29.06 "Hg1 mi
Weather by CustomWeather, © 2014

See weather overviewHow to use our weather pages